This demonstration page uses our WeatherBlox Daily Observations layout. Learn more.

Left ArrowRight Arrow

41.86663, -103.66717

Hourly Observations for April 30, 2021

Temp ( °F °C ) Dew Point ( °F °C ) Humidity (%) Winds ( mph kmh ) Pressure ( in mb ) Visibility ( mi km ) Precip ( " mm )
12:53 am 00:53 Clear 46 7.8 34 1.1 63 63 NE 3 6 30.18 1022 10 16 0.00 0.00
1:53 am 01:53 Clear 41 5 34 1.1 76 76 Calm 30.18 1022 10 16 0.00 0.00
2:53 am 02:53 Clear 43 6.1 33 0.6 68 68 NE 6 9 30.15 1021 10 16 0.00 0.00
3:53 am 03:53 Clear 40 4.4 33 0.6 77 77 W 6 9 30.15 1021 10 16 0.00 0.00
4:53 am 04:53 Clear 39 3.9 33 0.6 79 79 NW 8 13 30.16 1021 10 16 0.00 0.00
5:53 am 05:53 Sunny 41 5 34 1.1 76 76 N 7 11 30.16 1021 10 16 0.00 0.00
6:53 am 06:53 Sunny 44 6.7 36 2.2 73 73 NW 5 7 30.18 1022 10 16 0.00 0.00
7:53 am 07:53 Sunny 52 11.1 39 3.9 61 61 NW 9 15 30.16 1022 10 16 0.00 0.00
8:53 am 08:53 Sunny 59 15 39 3.9 48 48 WNW 9 15 30.17 1022 10 16 0.00 0.00
9:53 am 09:53 Sunny 66 18.9 39 3.9 37 37 WNW 8 13 30.13 1020 10 16 0.00 0.00
10:53 am 10:53 Sunny 73 22.8 38 3.3 28 28 VRB 6 9 30.11 1020 10 16 0.00 0.00
11:53 am 11:53 Sunny 78 25.6 34 1.1 20 20 Calm 30.07 1018 10 16 0.00 0.00
12:53 pm 12:53 Sunny 80 26.7 31 -0.6 17 17 SE 6 9 30.04 1017 10 16 0.00 0.00
1:53 pm 13:53 Sunny 80 26.7 32 0 17 17 SSW 8 13 30.02 1017 10 16 0.00 0.00
2:53 pm 14:53 Sunny 84 28.9 29 -1.7 13 13 W 9 15 29.97 1015 10 16 0.00 0.00
3:53 pm 15:53 Sunny 85 29.4 31 -0.6 14 14 SSW 12 19 29.94 1014 10 16 0.00 0.00
4:53 pm 16:53 Sunny 84 28.9 32 0 15 15 S 8 13 29.92 1013 10 16 0.00 0.00
5:53 pm 17:53 Sunny 83 28.3 32 0 16 16 S 10 17 29.89 1012 10 16 0.00 0.00
6:53 pm 18:53 Sunny 78 25.6 37 2.8 23 23 SSE 8 13 29.88 1012 10 16 0.00 0.00
7:53 pm 19:53 Clear 72 22.2 38 3.3 29 29 SE 8 13 29.86 1011 10 16 0.00 0.00
8:53 pm 20:53 Clear 63 17.2 37 2.8 38 38 ESE 9 15 29.87 1012 10 16 0.00 0.00
9:53 pm 21:53 Clear 60 15.6 38 3.3 44 44 ESE 9 15 29.85 1011 10 16 0.00 0.00
10:53 pm 22:53 Clear 63 17.2 38 3.3 40 40 SE 8 13 29.81 1009 10 16 0.00 0.00
11:53 pm 23:53 Clear 65 18.3 37 2.8 36 36 Calm 29.78 1009 10 16 0.00 0.00

Powered by AerisWeather